Regional Weather Roundup
Issued by NWS

Home | Current Version | Previous Version | Graphics & Text | Print | Product List | Glossary On
Versions: 1 2 3 4 5 6 7 8 9 10 11 12 13 14 15 16 17 18 19 20 21 22 23 24 25 26 27 28 29 30 31 32 33 34 35 36 37 38 39 40 41 42 43 44 45 46 47 48 49 50
968
ASUS45 KBOI 051910
RWRID

IDAHO REGIONAL WEATHER ROUNDUP
NATIONAL WEATHER SERVICE BOISE ID
100 PM MDT THU MAY 05 2016

NOTE: "FAIR" INDICATES FEW OR NO CLOUDS BELOW 12000 FEET
WITH NO SIGNIFICANT WEATHER AND/OR OBSTRUCTIONS TO VISIBILITY

IDZ012-014-052000-
SOUTHWEST IDAHO


CITY           SKY/WX    TMP DP  RH WIND       PRES   REMARKS
BOISE          CLOUDY    69  47  45 W5        29.83F
CALDWELL       CLOUDY    70  49  47 N7        29.83F
MOUNTAIN HOME  PTSUNNY   73  45  36 E7        29.81F
$$

IDZ016-017-052000-
SOUTHCENTRAL IDAHO


CITY           SKY/WX    TMP DP  RH WIND       PRES   REMARKS
BURLEY         CLOUDY    70  45  40 N6        29.86F
JEROME         CLOUDY    68  45  43 E6        29.88F
TWIN FALLS     PTSUNNY   67  44  43 VRB5      29.88F
$$

IDZ019>023-052000-
SOUTHEAST IDAHO


CITY           SKY/WX    TMP DP  RH WIND       PRES   REMARKS
IDAHO FALLS    CLOUDY    74  39  28 VRB5      29.96F
POCATELLO      CLOUDY    78  40  25 NE6       29.91F
REXBURG        CLOUDY    76  33  21 S13       29.96F
$$

IDZ006-010-011-018-031-032-052000-
CENTRAL IDAHO MOUNTAINS


CITY           SKY/WX    TMP DP  RH WIND       PRES   REMARKS
MCCALL         CLOUDY    63  42  46 SW6       29.90S
HAILEY         PTSUNNY   70  39  32 S9        29.96F
STANLEY          N/A     66  34  30 CALM      29.97F
SALMON         CLOUDY    66  37  34 CALM      29.88F
CHALLIS        PTSUNNY   72  33  24 VRB3      29.92F
$$

IDZ002-004-006-007-026-052000-
NORTHERN IDAHO


CITY           SKY/WX    TMP DP  RH WIND       PRES   REMARKS
LEWISTON       MOSUNNY   72  53  51 VRB5      29.87F
LOWELL           N/A     72  51  47 S5        29.81F
COEUR D`ALENE  MOSUNNY   66  50  55 SW5       29.91S
MULLAN PASS    PTSUNNY   57  41  55 NW5       30.01S
$$




USA.gov is the U.S. government's official web portal to all federal, state and local government web resources and services.